Regional Weather Roundup
Issued by NWS

Home | Current Version | Previous Version | Text Only | Print | Product List | Glossary On
Versions: 1 2 3 4 5 6 7 8 9 10 11 12 13 14 15 16 17 18 19 20 21 22 23 24 25 26 27
000
ASUS44 KJAN 181410
RWRMS

MISSISSIPPI HOURLY WEATHER ROUNDUP
NATIONAL WEATHER SERVICE JACKSON MS
800 AM CST SAT NOV 18 2017

NOTE: "FAIR: INDICATES FEW OR NO CLOUDS BELOW 12,000 FEET WITH NO
SIGNIFICANT WEATHER AND/OR OBSTRUCTIONS TO VISIBILITY.

MSZ001>002-007>008-010>013-018>021-025>028-034>036-181500-
NORTHWEST MISSISSIPPI

CITY           SKY/WX    TMP DP  RH WIND       PRES   REMARKS
BATESVILLE     CLOUDY    69  60  73 S16G30    29.75S
CLARKSDALE       N/A     68  68 100 S13       29.73S
CLEVELAND      CLOUDY    68  67  96 SW14      29.74R
GREENWOOD      CLOUDY    69  63  81 S20       29.76F
GREENVILLE     CLOUDY    70  63  78 S23G33    29.71F
OXFORD         CLOUDY    66  61  82 S16G24    29.75F
TUNICA           N/A    N/A N/A N/A S16G24    29.71R
WINONA         CLOUDY    67  64  89 S10G20    29.78F
$$

MSZ003>006-009-014>017-022>024-029>033-037>039-181500-
NORTHEAST MISSISSIPPI

CITY           SKY/WX    TMP DP  RH WIND       PRES   REMARKS
ABERDEEN       CLOUDY    64  64 100 S13       29.84S
COLUMBUS AFB   CLOUDY    65  63  94 S14       29.83F
CORINTH        CLOUDY    66  59  77 S14G25    29.73S HAZE
GOLDN TRIANGLE CLOUDY    64  61  90 S15G21    29.85F
STARKVILLE     CLOUDY    64  61  88 S10       29.84F
TUPELO         CLOUDY    65  60  84 S18       29.78F
$$

MSZ040-058-181500-
CENTRAL MISSISSIPPI

CITY           SKY/WX    TMP DP  RH WIND       PRES   REMARKS
JACKSON INTL   CLOUDY    68  63  84 S15       29.85S
JACKSON HAWKNS CLOUDY    65  64  97 S15       29.85F
MADISON        CLOUDY    64  61  88 S14G20    29.84S
MERIDIAN KEY   PTSUNNY   65  63  93 S14       29.90F
MERIDIAN NAS   NOT AVBL
RAYMOND        CLOUDY    68  64  88 S14G21    29.83F
VICKSBURG VKS  MOSUNNY   70  64  83 S14       29.83S HAZE
$$

MSZ059>079-181500-
SOUTH MISSISSIPPI

CITY           SKY/WX    TMP DP  RH WIND       PRES   REMARKS
COLUMBIA       CLOUDY    64  64 100 S6        29.96S
HATTIESBURG    MOSUNNY   67  65  93 S8        29.94R
LAUREL         CLOUDY    62  62 100 S7        29.94R
MCCOMB         PTSUNNY   66  63  90 S9        29.91S
NATCHEZ        PTSUNNY   71  65  81 S14G22    29.86S
PINE BELT      CLOUDY    64  63  96 S8        29.94R
$$

MSZ080>082-181500-
COASTAL MISSISSIPPI

CITY           SKY/WX    TMP DP  RH WIND       PRES   REMARKS
BAY ST LOUIS   MOSUNNY   70  66  88 S8        29.95R
BILOXI         SUNNY     71  66  84 SW9       29.95R
PASCAGOULA     SUNNY     70  64  81 S6        29.96R
GULFPORT       MOSUNNY   72  66  81 S7        29.95R
$$

LAZ007>009-015>016-023>026-181500-
NORTHEAST LOUISIANA

CITY           SKY/WX    TMP DP  RH WIND       PRES   REMARKS
BASTROP        CLOUDY    71  68  92 S10G18    29.75S
TALLULAH/VBURG CLOUDY    69  65  86 S12       29.82S
VIDALIA        CLOUDY   N/A N/A N/A MISG      29.85S
$$




USA.gov is the U.S. government's official web portal to all federal, state and local government web resources and services.